Change the Weather History Date:

Wednesday, February 29, 2012

  Actual Average Record
Temperature  
Mean Temperature 30 °F -  
Max Temperature 32 °F 37 °F 67 °F (1972)
Min Temperature 28 °F 21 °F -5 °F (1980)
Degree Days  
Heating Degree Days 35    
Month to date heating degree days 978  
Moisture  
Dew Point 25 °F    
Average Humidity 79    
Maximum Humidity 100    
Minimum Humidity 58    
Precipitation  
Precipitation 0.26 in - - ()
Month to date precipitation 1.18  
Year to date precipitation 4.40  
Sea Level Pressure  
Sea Level Pressure 30.05 in    
Wind  
Wind Speed 10 mph (ESE)    
Max Wind Speed 18 mph    
Max Gust Speed 24 mph    
Visibility 3 miles    
Events Fog , Rain , Snow    
T = Trace of Precipitation, MM = Missing Value Source: NWS Daily Summary

Daily Weather History Graph

Daily Weather History Graph

Search for Another Location

Airport or City:

Trip Planner

Search our weather history database for the weather conditions in past years. The results will help you decide how hot, cold, wet, or windy it might be!

Date:

Astronomy

Feb. 29, 2012 Rise Set
Actual Time 6:36 AM EST 5:51 PM EST
Civil Twilight 6:08 AM EST 6:19 PM EST
Nautical Twilight 5:37 AM EST 6:51 PM EST
Astronomical Twilight 5:05 AM EST 7:23 PM EST
Moon 10:21 AM EST (2/29) 12:40 AM EST (2/29)
Length of Visible Light 12h 10m
Length of Day
11h 15m
Waxing Crescent, 47% of the Moon is Illuminated
Feb 29
Waxing Crescent
Feb 29
First Quarter
Mar 8
Full
Mar 14
Last Quarter
Mar 22
New

Hourly Weather History & Observations

Time (EST) Temp. Windchill Dew Point Humidity Pressure Visibility Wind Dir Wind Speed Gust Speed Precip Events Conditions
12:53 AM 30.0 °F - 19.9 °F 66% 30.34 in 10.0 mi Calm Calm - N/A   Mostly Cloudy
1:53 AM 30.0 °F 25.2 °F 18.0 °F 61% 30.32 in 10.0 mi ESE 4.6 mph - N/A   Overcast
2:53 AM 30.9 °F 24.3 °F 17.1 °F 57% 30.27 in 10.0 mi East 6.9 mph - N/A   Overcast
3:53 AM 30.9 °F 23.5 °F 17.1 °F 57% 30.25 in 10.0 mi East 8.1 mph - N/A   Overcast
4:53 AM 30.0 °F 24.1 °F 17.1 °F 59% 30.25 in 10.0 mi East 5.8 mph - N/A   Overcast
5:53 AM 30.0 °F 22.4 °F 17.1 °F 59% 30.24 in 10.0 mi East 8.1 mph - N/A   Overcast
6:32 AM 30.2 °F 21.9 °F 17.6 °F 60% 30.17 in 10.0 mi ESE 9.2 mph - N/A   Overcast
6:40 AM 30.2 °F 21.9 °F 17.6 °F 60% 30.17 in 10.0 mi East 9.2 mph - N/A   Overcast
7:53 AM 30.0 °F 21.7 °F 19.0 °F 64% 30.21 in 10.0 mi ESE 9.2 mph - N/A   Overcast
8:17 AM 30.2 °F 21.9 °F 19.4 °F 64% 30.15 in 10.0 mi East 9.2 mph - N/A   Overcast
8:49 AM 30.2 °F 22.6 °F 21.2 °F 69% 30.14 in 2.0 mi ESE 8.1 mph - 0.00 in Snow Light Snow
8:53 AM 28.9 °F 21.1 °F 21.9 °F 75% 30.21 in 1.2 mi ESE 8.1 mph - 0.00 in Snow Light Snow
9:02 AM 28.4 °F 20.4 °F 23.0 °F 80% 30.13 in 0.8 mi ESE 8.1 mph - 0.00 in Snow Light Snow
9:14 AM 28.4 °F 21.2 °F 24.8 °F 86% 30.12 in 0.5 mi ESE 6.9 mph - 0.01 in Fog , Snow Snow
9:20 AM 28.4 °F 21.2 °F 24.8 °F 86% 30.11 in 0.2 mi ESE 6.9 mph - 0.02 in Fog , Snow Snow
9:28 AM 28.4 °F 20.4 °F 24.8 °F 86% 30.11 in 0.5 mi ESE 8.1 mph - 0.03 in Fog , Snow Snow
9:42 AM 28.4 °F 19.1 °F 24.8 °F 86% 30.10 in 1.2 mi East 10.4 mph - 0.03 in Snow Light Snow
9:49 AM 28.4 °F 19.1 °F 24.8 °F 86% 30.10 in 1.2 mi ESE 10.4 mph - 0.03 in Snow Light Snow
9:53 AM 28.0 °F 19.3 °F 25.0 °F 88% 30.17 in 1.2 mi ESE 9.2 mph - 0.03 in Snow Light Snow
10:06 AM 28.4 °F 20.4 °F 26.6 °F 93% 30.10 in 0.8 mi ESE 8.1 mph - 0.01 in Snow Light Snow
10:53 AM 28.9 °F 21.1 °F 26.1 °F 89% 30.14 in 0.5 mi ESE 8.1 mph - 0.04 in Fog , Snow Snow
11:53 AM 28.0 °F 18.1 °F 26.1 °F 92% 30.08 in 0.8 mi ESE 11.5 mph - 0.08 in Snow Light Snow
12:04 PM 28.4 °F 19.7 °F 26.6 °F 93% 30.00 in 1.5 mi ESE 9.2 mph 19.6 mph 0.02 in Snow Light Snow
12:13 PM 28.4 °F 17.0 °F 26.6 °F 93% 29.99 in 2.0 mi SE 15.0 mph 19.6 mph 0.03 in   Overcast
12:25 PM 28.4 °F 16.6 °F 26.6 °F 93% 29.98 in 0.2 mi ESE 16.1 mph - 0.04 in Fog , Rain Light Freezing Rain
12:53 PM 30.0 °F 20.5 °F 28.0 °F 92% 30.01 in 0.2 mi ESE 11.5 mph 21.9 mph 0.06 in Fog , Rain Light Freezing Rain
1:53 PM 30.0 °F 19.5 °F 28.9 °F 96% 29.98 in 0.2 mi ESE 13.8 mph 19.6 mph 0.02 in Fog , Rain Light Freezing Rain
2:53 PM 30.9 °F 20.7 °F 28.9 °F 92% 29.97 in 0.2 mi ESE 13.8 mph 19.6 mph 0.02 in Fog , Rain Light Freezing Rain
3:53 PM 30.0 °F 19.5 °F 28.9 °F 96% 29.93 in 0.2 mi ESE 13.8 mph - 0.00 in Fog Light Freezing Fog
4:53 PM 30.0 °F 20.0 °F 28.9 °F 96% 29.91 in 0.2 mi ESE 12.7 mph - 0.00 in Fog Light Freezing Fog
5:53 PM 30.9 °F 21.2 °F 28.9 °F 92% 29.89 in 0.2 mi East 12.7 mph - N/A Fog Light Freezing Fog
6:07 PM 30.2 °F 21.3 °F 30.2 °F 100% 29.83 in 0.2 mi East 10.4 mph - 0.00 in Fog , Rain Light Freezing Rain
7:03 PM 30.2 °F 21.9 °F 30.2 °F 100% 29.83 in 0.2 mi East 9.2 mph - 0.00 in Fog Light Freezing Fog
8:08 PM 30.2 °F 20.2 °F 30.2 °F 100% 29.77 in 0.2 mi East 12.7 mph - 0.00 in Fog , Rain Light Freezing Rain
8:53 PM 30.9 °F 21.2 °F 30.0 °F 96% 29.83 in 0.2 mi East 12.7 mph - 0.00 in Fog Light Freezing Fog
9:53 PM 30.9 °F 21.2 °F 30.0 °F 96% 29.81 in 0.2 mi ESE 12.7 mph 18.4 mph N/A Fog Light Freezing Fog
11:08 PM 32.0 °F 21.2 °F 30.2 °F 93% 29.68 in 0.2 mi ESE 16.1 mph 24.2 mph 0.00 in Fog , Rain Light Freezing Rain
11:53 PM 32.0 °F 23.0 °F 30.0 °F 92% 29.74 in 0.2 mi ESE 11.5 mph - 0.01 in Fog , Rain Light Freezing Rain